This is the latest recevied weather packets stored in our database for station/object KE8URB. If no packets are shown the sender has not sent any weather packets the latest 10 day(s).
| Time | Temp. | Humidity | Pressure | Rain* | Wind** | Luminosity | Snow |
|---|---|---|---|---|---|---|---|
| 1787578504 | 15° C | 90% | 1017.2 hPa | 0 mm | - | 135 W/m² | - |
| 1787578204 | 15° C | 91% | 1017.1 hPa | 0 mm | - | 298 W/m² | - |
| 1787577900 | 14.44° C | 90% | 1017.1 hPa | 0 mm | - | 32 W/m² | - |
| 1787577595 | 14.44° C | 92% | 1017.2 hPa | 0 mm | - | 32 W/m² | - |
| 1787577291 | 14.44° C | 92% | 1017.1 hPa | 0 mm | - | 31 W/m² | - |
| 1787576987 | 14.44° C | 94% | 1017.2 hPa | 0 mm | - | 46 W/m² | - |
| 1787576687 | 13.89° C | 94% | 1017.3 hPa | 0 mm | - | 32 W/m² | - |
| 1787576383 | 13.89° C | 95% | 1017.1 hPa | 0 mm | - | 29 W/m² | - |
| 1787576078 | 13.33° C | 96% | 1016.9 hPa | 0 mm | - | 29 W/m² | - |
| 1787575773 | 13.33° C | 97% | 1016.9 hPa | 0 mm | - | 29 W/m² | - |
| 1787575470 | 13.33° C | 98% | 1016.9 hPa | 0 mm | - | 29 W/m² | - |
| 1787575165 | 12.78° C | 98% | 1016.9 hPa | 0 mm | - | 29 W/m² | - |
| 1787574864 | 12.78° C | 99% | 1016.9 hPa | 0 mm | - | 29 W/m² | - |
| 1787574559 | 12.78° C | 99% | 1017.2 hPa | 0 mm | - | 27 W/m² | - |
| 1787574259 | 12.22° C | 99% | 1017.1 hPa | 0 mm | - | 28 W/m² | - |
| 1787573954 | 12.22° C | 99% | 1017.1 hPa | 0 mm | - | 28 W/m² | - |
| 1787573653 | 12.22° C | 99% | 1017.1 hPa | 0 mm | - | 27 W/m² | - |
| 1787573348 | 12.22° C | 99% | 1017.2 hPa | 0 mm | - | 26 W/m² | - |
| 1787573045 | 12.22° C | 99% | 1017.2 hPa | 0 mm | - | 25 W/m² | - |
| 1787572741 | 11.67° C | 99% | 1017.1 hPa | 0 mm | - | 23 W/m² | - |
| 1787572436 | 11.67° C | 99% | 1017 hPa | 0 mm | - | 21 W/m² | - |
| 1787572131 | 11.67° C | 99% | 1017 hPa | 0 mm | - | 20 W/m² | - |
| 1787571830 | 11.67° C | 99% | 1016.9 hPa | 0 mm | - | 17 W/m² | - |
| 1787571525 | 11.67° C | 99% | 1016.9 hPa | 0 mm | - | 15 W/m² | - |
| 1787571223 | 11.67° C | 99% | 1016.9 hPa | 0 mm | - | 11 W/m² | - |
* Rain latest hour (hover to see other rain measurements)
** Current wind speed in m/s (hover to see current wind gust speed)